Location: Berlin
(42.3812°N, 71.6370°W)
Time: 12:08:52
(UTC+00:00)

CZ-2C R/B - Pass Details

Date: 15 November 2025
Orbit: 664 x 773 km, 98.4° (Epoch: 06 December)

Event Time Altitude Azimuth Distance (km) Brightness Sun altitude
Rises 09:52:52 0° 2° (N) 3,222 5.7 -19.4°
Reaches altitude 10° 09:55:26 10° 351° (N) 2,305 4.8 -18.9°
Enters shadow 09:58:20 24° 320° (NW) 1,542 3.6 -18.4°
